This demonstration page uses our WeatherBlox Daily Observations layout. Learn more.

Left ArrowRight Arrow

41.55636, -103.73856

Hourly Observations for February 3, 2020

Temp ( °F °C ) Dew Point ( °F °C ) Humidity (%) Winds ( mph kmh ) Pressure ( in mb ) Visibility ( mi km ) Precip ( " mm )
12:58 am 00:58 Mostly Cloudy 41 5.2 24 -4.2 51 51 NE 16 26 29.64 1004 10 16 N/A
1:58 am 01:58 Mostly Cloudy 37 2.9 22 -5.3 55 55 ENE 21 33 29.67 1005 10 16 N/A
2:58 am 02:58 Mostly Cloudy 33 0.7 22 -5.6 63 63 ENE 20 31 29.68 1005 10 16 N/A
3:58 am 03:58 Clear 32 undefined 22 -5.3 68 68 ENE 17 28 29.67 1005 10 16 N/A
4:58 am 04:58 Partly Cloudy 31 -0.7 25 -4.1 78 78 ENE 17 28 29.67 1005 10 16 N/A
5:58 am 05:58 Cloudy 31 -0.8 26 -3.4 83 83 ENE 16 26 29.69 1005 10 16 N/A
6:58 am 06:58 Windy with Snow Showers Likely 30 -1.2 25 -3.9 82 82 ENE 23 37 29.68 1005 10 16 N/A
7:58 am 07:58 Windy with Snow Showers Likely 28 -2.4 23 -4.9 83 83 ENE 26 43 29.69 1005 10 16 N/A
8:58 am 08:58 Windy with Snow Showers Likely 26 -3.3 23 -5.1 88 88 ENE 23 37 29.70 1006 10 16 N/A
9:58 am 09:58 Cloudy with Light Snow Showers 25 -3.7 23 -4.8 92 92 ENE 17 28 29.73 1007 10 16 N/A
10:58 am 10:58 Cloudy with Light Freezing Rain 22 -5.3 19 -7.1 87 87 ENE 18 30 29.75 1008 5 8 N/A
11:58 am 11:58 Cloudy 21 -6.3 14 -10.2 74 74 ENE 13 20 29.84 1011 10 16 N/A
12:58 pm 12:58 Cloudy 20 -6.5 11 -11.9 66 66 E 20 31 29.85 1011 10 16 N/A
1:58 pm 13:58 Cloudy 20 -6.6 6 -14.2 55 55 E 17 28 29.89 1012 10 16 N/A
2:58 pm 14:58 Cloudy 20 -6.4 5 -14.8 52 52 E 16 26 29.93 1014 10 16 N/A
3:58 pm 15:58 Cloudy 21 -6.2 7 -14.1 54 54 E 20 31 29.95 1014 10 16 N/A
4:58 pm 16:58 Cloudy 22 -5.8 5 -14.8 49 49 E 17 28 29.95 1014 10 16 N/A
5:58 pm 17:58 Cloudy 22 -5.4 6 -14.4 50 50 E 15 24 29.96 1015 10 16 N/A
6:58 pm 18:58 Cloudy 23 -5.1 5 -15 46 46 E 15 24 29.94 1014 10 16 N/A
7:58 pm 19:58 Mostly Cloudy 22 -5.4 7 -13.7 52 52 E 16 26 29.93 1014 10 16 N/A
8:58 pm 20:58 Mostly Cloudy with Light Snow 22 -5.8 14 -10 73 73 ENE 14 22 29.93 1014 10 16 N/A
9:58 pm 21:58 Mostly Cloudy with Light Snow 19 -7 16 -9 86 86 ENE 16 26 29.96 1014 4 6 N/A
10:58 pm 22:58 Mostly Cloudy with Light Snow 21 -6 13 -10.7 70 70 E 14 22 29.99 1016 10 16 0.08 2.03
11:58 pm 23:58 Cloudy with Light Snow 18 -7.7 13 -10.3 82 82 ENE 14 22 30.02 1017 2 3 N/A

Powered by AerisWeather